User: anonymous
Location: CNYAC Observatory
(43.2150°N, 74.9500°W)
Time: 17:11:00
(UTC-04:00)
Language:

Meteor 1-22 Rocket - Orbit

View from above orbital plane
View from above orbital plane
View from above satellite
View from above satellite

Ground track
Ground track

The orbit data is extracted from the following two-line orbital elements,

1 08294U 75087B   14292.82704243  .00000114  00000-0  56776-4 0  1003
2 08294 081.2177 249.3004 0105344 261.4050 158.9368 14.08499111  8116
Epoch (UTC): 19 October 2014 19:50:56
Eccentricity: 0.0105344
inclination: 81.2177°
perigee height: 788 km
apogee height: 941 km
right ascension of ascending node: 249.3004°
argument of perigee: 261.4050°
revolutions per day: 14.08499111
mean anomaly at epoch: 158.9368°
orbit number at epoch: 811

The dashed part of the orbit path shows where the satellite is in the earth's shadow,  

DLR